N1CU KRDU-KLZU

Flight info

Callsign N1CU
Flight time 0h 55m
Altitude 38000
Route SHPRD4 SHPRD MILBY DEHAN3
Aircraft CL60/M-SBDE1E2E3FGHIJ1J4J5J7M3RWXYZ/LB1V1D1

Departure

Time 2026-05-07 15:35
Airport Raleigh-Durham International Airport (KRDU)

Arrival

Time 2026-05-07 16:30
Airport Gwinnett County Briscoe Field (KLZU)
Time Latitude Longitude Altitude Speed Heading
2026-05-07 15:27 35.87949 -78.78387 422 ft 0 kts 45°
2026-05-07 15:32 35.87958 -78.78375 422 ft 6 kts 50°
2026-05-07 15:32 35.88009 -78.78307 421 ft 4 kts 50°
2026-05-07 15:32 35.88015 -78.78259 422 ft 6 kts 126°
2026-05-07 15:33 35.87984 -78.78226 422 ft 6 kts 133°
2026-05-07 15:33 35.87969 -78.78169 422 ft 9 kts 55°
2026-05-07 15:33 35.88015 -78.78093 421 ft 10 kts 104°
2026-05-07 15:33 35.87977 -78.78030 421 ft 4 kts 128°
2026-05-07 15:34 35.87948 -78.77992 422 ft 8 kts 136°
2026-05-07 15:34 35.87889 -78.77974 423 ft 11 kts 216°
2026-05-07 15:34 35.87745 -78.78151 426 ft 74 kts 224°
2026-05-07 15:34 35.87119 -78.78921 577 ft 162 kts 224°
2026-05-07 15:35 35.86239 -78.79981 1449 ft 191 kts 226°
2026-05-07 15:35 35.85294 -78.81144 2534 ft 210 kts 226°
2026-05-07 15:35 35.84196 -78.82397 3485 ft 229 kts 225°
2026-05-07 15:35 35.83102 -78.83946 4589 ft 249 kts 246°
2026-05-07 15:36 35.82823 -78.86660 6609 ft 252 kts 272°
2026-05-07 15:36 35.82857 -78.88075 7586 ft 256 kts 271°
2026-05-07 15:36 35.82899 -78.90224 9068 ft 259 kts 271°
2026-05-07 15:36 35.82941 -78.92409 10532 ft 261 kts 270°
2026-05-07 15:37 35.82981 -78.94610 11732 ft 269 kts 270°
2026-05-07 15:37 35.83022 -78.96981 12712 ft 285 kts 270°
2026-05-07 15:37 35.83064 -78.99429 13765 ft 295 kts 269°
2026-05-07 15:37 35.83107 -79.01946 14882 ft 300 kts 269°
2026-05-07 15:38 35.83149 -79.04516 15896 ft 308 kts 269°
2026-05-07 15:38 35.83192 -79.07153 16923 ft 313 kts 268°
2026-05-07 15:38 35.83235 -79.09840 17886 ft 318 kts 268°
2026-05-07 15:38 35.83278 -79.12569 18875 ft 321 kts 268°
2026-05-07 15:39 35.83321 -79.15297 19857 ft 323 kts 268°
2026-05-07 15:39 35.83364 -79.18048 20834 ft 323 kts 268°
2026-05-07 15:39 35.83405 -79.20785 21791 ft 323 kts 268°
2026-05-07 15:39 35.83446 -79.23532 22653 ft 324 kts 268°
2026-05-07 15:40 35.83486 -79.26283 23516 ft 326 kts 268°
2026-05-07 15:40 35.83524 -79.29059 24409 ft 325 kts 267°
2026-05-07 15:40 35.83414 -79.31827 25357 ft 322 kts 263°
2026-05-07 15:40 35.83207 -79.34563 26208 ft 322 kts 262°
2026-05-07 15:41 35.83001 -79.37275 27031 ft 321 kts 263°
2026-05-07 15:41 35.82795 -79.40005 27793 ft 322 kts 263°
2026-05-07 15:41 35.82587 -79.42742 28527 ft 322 kts 262°
2026-05-07 15:41 35.82378 -79.45497 29236 ft 322 kts 262°
2026-05-07 15:42 35.82170 -79.48209 29882 ft 322 kts 263°
2026-05-07 15:42 35.81959 -79.50958 30434 ft 325 kts 263°
2026-05-07 15:42 35.81702 -79.53769 30922 ft 328 kts 260°
2026-05-07 15:42 35.81258 -79.56522 31441 ft 329 kts 258°
2026-05-07 15:43 35.80785 -79.59295 31919 ft 331 kts 258°
2026-05-07 15:43 35.80314 -79.62064 32384 ft 333 kts 258°
2026-05-07 15:43 35.79836 -79.64871 32808 ft 335 kts 259°
2026-05-07 15:43 35.79360 -79.67660 33249 ft 336 kts 258°
2026-05-07 15:44 35.78872 -79.70517 33717 ft 338 kts 258°
2026-05-07 15:44 35.78394 -79.73313 34223 ft 337 kts 258°
2026-05-07 15:44 35.77909 -79.76141 34834 ft 334 kts 258°
2026-05-07 15:44 35.77434 -79.78909 35439 ft 331 kts 258°
2026-05-07 15:45 35.76962 -79.81664 36018 ft 328 kts 258°
2026-05-07 15:45 35.76494 -79.84384 36597 ft 324 kts 258°
2026-05-07 15:45 35.76031 -79.87068 37108 ft 322 kts 258°
2026-05-07 15:45 35.75565 -79.89771 37523 ft 321 kts 257°
2026-05-07 15:46 35.74634 -79.95158 37899 ft 326 kts 257°
2026-05-07 15:46 35.74156 -79.97917 37892 ft 328 kts 258°
2026-05-07 15:47 35.73209 -80.03374 37882 ft 324 kts 258°
2026-05-07 15:47 35.72272 -80.08759 37883 ft 323 kts 258°
2026-05-07 15:48 35.71324 -80.14191 37885 ft 322 kts 258°
2026-05-07 15:48 35.70379 -80.19587 37881 ft 322 kts 258°
2026-05-07 15:49 35.69437 -80.24958 37886 ft 322 kts 258°
2026-05-07 15:49 35.68490 -80.30338 37886 ft 326 kts 257°
2026-05-07 15:50 35.67514 -80.35864 37888 ft 338 kts 258°
2026-05-07 15:50 35.66499 -80.41601 37888 ft 347 kts 258°
2026-05-07 15:51 35.65437 -80.47468 37894 ft 351 kts 256°
2026-05-07 15:51 35.63699 -80.53065 37897 ft 352 kts 250°
2026-05-07 15:52 35.61853 -80.58665 37897 ft 352 kts 251°
2026-05-07 15:52 35.60014 -80.64246 37896 ft 350 kts 251°
2026-05-07 15:53 35.58178 -80.69813 37897 ft 351 kts 250°
2026-05-07 15:53 35.56348 -80.75352 37898 ft 353 kts 250°
2026-05-07 15:54 35.54467 -80.81046 37895 ft 359 kts 251°
2026-05-07 15:54 35.52582 -80.86739 37896 ft 363 kts 250°
2026-05-07 15:55 35.50682 -80.92468 37891 ft 363 kts 250°
2026-05-07 15:55 35.48770 -80.98222 37885 ft 363 kts 250°
2026-05-07 15:56 35.46856 -81.03970 37887 ft 363 kts 250°
2026-05-07 15:56 35.44948 -81.09692 37886 ft 363 kts 250°
2026-05-07 15:57 35.43037 -81.15413 37885 ft 363 kts 250°
2026-05-07 15:57 35.41117 -81.21152 37889 ft 363 kts 250°
2026-05-07 15:58 35.39194 -81.26888 37884 ft 363 kts 250°
2026-05-07 15:58 35.37266 -81.32629 37882 ft 363 kts 250°
2026-05-07 15:59 35.35340 -81.38351 37887 ft 364 kts 250°
2026-05-07 15:59 35.33408 -81.44082 37882 ft 364 kts 250°
2026-05-07 16:00 35.31480 -81.49790 37884 ft 364 kts 250°
2026-05-07 16:00 35.29526 -81.55564 37887 ft 364 kts 251°
2026-05-07 16:01 35.27590 -81.61276 37889 ft 364 kts 250°
2026-05-07 16:01 35.25628 -81.67056 37890 ft 364 kts 250°
2026-05-07 16:02 35.23679 -81.72781 37886 ft 365 kts 250°
2026-05-07 16:02 35.21736 -81.78483 37889 ft 364 kts 250°
2026-05-07 16:03 35.19778 -81.84218 37888 ft 364 kts 249°
2026-05-07 16:03 35.17829 -81.89912 37888 ft 364 kts 250°
2026-05-07 16:04 35.15868 -81.95636 37887 ft 364 kts 249°
2026-05-07 16:04 35.13915 -82.01323 37892 ft 364 kts 249°
2026-05-07 16:05 35.11951 -82.07031 37896 ft 364 kts 249°
2026-05-07 16:05 35.09987 -82.12731 37895 ft 364 kts 250°
2026-05-07 16:06 35.08017 -82.18437 37905 ft 364 kts 249°
2026-05-07 16:06 35.06053 -82.24116 37900 ft 364 kts 250°
2026-05-07 16:07 35.04078 -82.29814 37905 ft 364 kts 250°
2026-05-07 16:07 35.02100 -82.35514 37905 ft 363 kts 250°
2026-05-07 16:08 35.00140 -82.41151 37803 ft 365 kts 249°
2026-05-07 16:08 34.99134 -82.44041 37358 ft 369 kts 250°
2026-05-07 16:08 34.98125 -82.46936 36894 ft 368 kts 250°
2026-05-07 16:08 34.97126 -82.49799 36431 ft 367 kts 250°
2026-05-07 16:09 34.96124 -82.52666 35970 ft 367 kts 250°
2026-05-07 16:09 34.95124 -82.55527 35488 ft 368 kts 250°
2026-05-07 16:09 34.94117 -82.58408 35001 ft 369 kts 249°
2026-05-07 16:09 34.93112 -82.61280 34513 ft 371 kts 249°
2026-05-07 16:10 34.92106 -82.64150 34025 ft 371 kts 249°
2026-05-07 16:10 34.91093 -82.67038 33539 ft 370 kts 249°
2026-05-07 16:10 34.90073 -82.69942 33043 ft 368 kts 249°
2026-05-07 16:10 34.89070 -82.72797 32565 ft 365 kts 249°
2026-05-07 16:11 34.88066 -82.75648 32069 ft 361 kts 249°
2026-05-07 16:11 34.87138 -82.78284 31616 ft 358 kts 249°
2026-05-07 16:11 34.86151 -82.81082 31141 ft 356 kts 249°
2026-05-07 16:11 34.85171 -82.83859 30670 ft 354 kts 250°
2026-05-07 16:12 34.84206 -82.86595 30202 ft 352 kts 249°
2026-05-07 16:12 34.83246 -82.89313 29738 ft 350 kts 249°
2026-05-07 16:12 34.82294 -82.92004 29272 ft 347 kts 250°
2026-05-07 16:12 34.81342 -82.94692 28830 ft 345 kts 250°
2026-05-07 16:13 34.80400 -82.97353 28368 ft 343 kts 250°
2026-05-07 16:13 34.79454 -83.00021 27901 ft 341 kts 250°
2026-05-07 16:13 34.78527 -83.02634 27461 ft 339 kts 250°
2026-05-07 16:13 34.77584 -83.05292 27012 ft 338 kts 250°
2026-05-07 16:14 34.76662 -83.07883 26566 ft 337 kts 250°
2026-05-07 16:14 34.75742 -83.10474 26130 ft 335 kts 249°
2026-05-07 16:14 34.74815 -83.13078 25686 ft 334 kts 250°
2026-05-07 16:14 34.73890 -83.15673 25245 ft 332 kts 250°
2026-05-07 16:15 34.72975 -83.18240 24812 ft 330 kts 250°
2026-05-07 16:15 34.72071 -83.20773 24381 ft 329 kts 249°
2026-05-07 16:15 34.71157 -83.23333 23940 ft 327 kts 250°
2026-05-07 16:15 34.70257 -83.25853 23512 ft 326 kts 249°
2026-05-07 16:16 34.69361 -83.28357 23087 ft 325 kts 249°
2026-05-07 16:16 34.68479 -83.30862 22656 ft 323 kts 251°
2026-05-07 16:16 34.67703 -83.33391 22225 ft 321 kts 252°
2026-05-07 16:16 34.66942 -83.35928 21804 ft 319 kts 252°
2026-05-07 16:17 34.66186 -83.38442 21366 ft 317 kts 252°
2026-05-07 16:17 34.65418 -83.40929 20957 ft 316 kts 250°
2026-05-07 16:17 34.64223 -83.43231 20245 ft 328 kts 234°
2026-05-07 16:17 34.62356 -83.44891 19395 ft 345 kts 216°
2026-05-07 16:18 34.60189 -83.46085 18569 ft 345 kts 213°
2026-05-07 16:18 34.58035 -83.47254 17657 ft 335 kts 214°
2026-05-07 16:18 34.55947 -83.48392 16758 ft 326 kts 213°
2026-05-07 16:18 34.53900 -83.49509 15867 ft 319 kts 213°
2026-05-07 16:19 34.51911 -83.50594 14985 ft 313 kts 213°
2026-05-07 16:19 34.49946 -83.51668 14107 ft 308 kts 212°
2026-05-07 16:19 34.48030 -83.52715 13243 ft 303 kts 212°
2026-05-07 16:19 34.46136 -83.53751 12386 ft 299 kts 212°
2026-05-07 16:20 34.44254 -83.54781 11533 ft 295 kts 212°
2026-05-07 16:20 34.42397 -83.55796 10709 ft 291 kts 211°
2026-05-07 16:20 34.40600 -83.56776 10175 ft 280 kts 212°
2026-05-07 16:20 34.38856 -83.57722 9780 ft 266 kts 212°
2026-05-07 16:21 34.37191 -83.58631 9450 ft 265 kts 212°
2026-05-07 16:21 34.35505 -83.59557 9053 ft 267 kts 211°
2026-05-07 16:21 34.33822 -83.60476 8699 ft 264 kts 212°
2026-05-07 16:21 34.32132 -83.61399 8340 ft 264 kts 212°
2026-05-07 16:22 34.30442 -83.62323 7991 ft 264 kts 212°
2026-05-07 16:22 34.28768 -83.63238 7646 ft 264 kts 211°
2026-05-07 16:22 34.27100 -83.64148 7288 ft 265 kts 211°
2026-05-07 16:22 34.25411 -83.65070 6940 ft 264 kts 211°
2026-05-07 16:23 34.23737 -83.65983 6604 ft 265 kts 211°
2026-05-07 16:23 34.22046 -83.66904 6229 ft 264 kts 210°
2026-05-07 16:23 34.20383 -83.67808 5896 ft 262 kts 210°
2026-05-07 16:23 34.18705 -83.68722 5534 ft 263 kts 210°
2026-05-07 16:24 34.17047 -83.69624 5192 ft 262 kts 209°
2026-05-07 16:24 34.15383 -83.70529 4847 ft 262 kts 209°
2026-05-07 16:24 34.13714 -83.71435 4502 ft 262 kts 209°
2026-05-07 16:24 34.12058 -83.72335 4155 ft 260 kts 208°
2026-05-07 16:25 34.10411 -83.73228 3814 ft 254 kts 208°
2026-05-07 16:25 34.08825 -83.74088 3486 ft 249 kts 208°
2026-05-07 16:25 34.07278 -83.74949 3177 ft 242 kts 212°
2026-05-07 16:25 34.06079 -83.76241 2978 ft 217 kts 238°
2026-05-07 16:26 34.05423 -83.77705 3001 ft 187 kts 247°
2026-05-07 16:26 34.04859 -83.79083 2987 ft 178 kts 246°
2026-05-07 16:26 34.04315 -83.80395 2986 ft 168 kts 246°
2026-05-07 16:26 34.03799 -83.81643 2980 ft 164 kts 246°
2026-05-07 16:27 34.03317 -83.82814 2999 ft 151 kts 247°
2026-05-07 16:27 34.02858 -83.83931 2989 ft 146 kts 247°
2026-05-07 16:27 34.02410 -83.85031 2840 ft 145 kts 247°
2026-05-07 16:27 34.01967 -83.86116 2660 ft 143 kts 246°
2026-05-07 16:28 34.01536 -83.87167 2514 ft 134 kts 246°
2026-05-07 16:28 34.01128 -83.88159 2319 ft 131 kts 246°
2026-05-07 16:28 34.00728 -83.89132 2149 ft 125 kts 245°
2026-05-07 16:28 34.00344 -83.90066 1985 ft 122 kts 245°
2026-05-07 16:29 33.99974 -83.90971 1826 ft 120 kts 245°
2026-05-07 16:29 33.99603 -83.91876 1671 ft 120 kts 244°
2026-05-07 16:29 33.99230 -83.92784 1510 ft 121 kts 244°
2026-05-07 16:29 33.98854 -83.93693 1325 ft 120 kts 244°
2026-05-07 16:30 33.98482 -83.94595 1159 ft 120 kts 244°
2026-05-07 16:30 33.98115 -83.95496 1032 ft 117 kts 245°
2026-05-07 16:30 33.97803 -83.96252 1039 ft 74 kts 244°
2026-05-07 16:30 33.97642 -83.96644 1050 ft 32 kts 244°
2026-05-07 16:31 33.97576 -83.96748 1053 ft 11 kts 163°
2026-05-07 16:31 33.97516 -83.96712 1054 ft 3 kts 155°
2026-05-07 16:31 33.97481 -83.96693 1054 ft 7 kts 159°
2026-05-07 16:31 33.97433 -83.96696 1055 ft 6 kts 201°
2026-05-07 16:32 33.97409 -83.96729 1057 ft 3 kts 242°
2026-05-07 16:32 33.97406 -83.96735 1057 ft 0 kts 244°